STARLINK-11377, 62013

Orbit data source: Space-Track

STARLINK-11377, 62013 is a payload satellite owned by SpaceX/Seattle (US) in LEO that was launched on Mon, 18 Nov 2024 UTC via an FALCON 9 launch vehicle from the Air Force Western Test Range (AFWTR). Payload-class satellites include a variety of spacecraft equipped with specific instruments for various scientific and technological missions. These include communications satellites like Starlink; space stations such as the ISS; scientific satellites like the Hubble; Earth observation satellites from companies like Planet Labs, Umbra, and HawkEye 360; GPS; miniature CubeSats for education and research; and military/defense satellites.

Loading next visibility...
Identifier
62013, 2024-213F
Orbit
LEO
Country
Flag of USUS
Related business
Manufacturer
SpaceX/Seattle
Mission
Operational Commercial Communications
Bus & Motor
STARLINK V2M, Unknown motor
Mass
730 kg wet, ~700 kg dry
Launch date (UTC)
2024-11-18 (9 months ago)
Launch vehicle
FALCON 9
Launch site
Air Force Western Test Range (AFWTR)
Object type
Payload
Rocket body
Debris
Shape & HBR
Box + 2 Pan, 14.5 m
Radar Cross Section
36.964 m², Large (>1 m²)

Expand to show TLE details & history
Last TLE update: 23 hours ago

TLE from 23 hours ago
0 STARLINK-11377
1 62013U 24213F   25241.57964667  .00127696  00000-0  10411-2 0  9998
2 62013  53.1571 268.1887 0001251  99.2607 260.8553 15.69747345 44747
Epoch: 2025-08-29T13:54Z
TLE epoch observation values (Epoch: 2025-08-29T13:54:41.472Z)
Latitude
0.00004°
Longitude
81.48966°
Altitude
360.669 km
Speed
7.694 km/s
True Right ascension
17h 52m 45s
True Declination
0° 00' 00"
Sunlit
Object was in full shadow at epoch
Visualization orbit readout
Latitude
Unknown
Longitude
Unknown
Altitude
Unknown
Speed
Unknown
Apparent Right ascension
Unknown
Apparent Declination
Unknown
Sunlit
N/A
Visualization observer readout
Local Sidereal Time
04:18:50
Azimuth
Unknown
Elevation
Unknown
Doppler factor
Unknown
Orbital elements
Apogee altitude
360.724 km
Perigee altitude
359.038 km
Semi-major axis
6,738.018 km
Eccentricity
0.00013
Inclination
53.1571°
RAAN
268.1887°
Arg. of periapsis
99.2607°
True anomaly
260.84115°
Mean anomaly
260.8553°
Eccentric anomaly
260.84822°
Mean motion
3.92414 °/min
Orbital period
91.74 mins
BSTAR
0.0010411
Loading maneuver chart data...
Computing Atmospheric mass density...
Loading historical data...
Loading historical data...
Loading historical data...
Loading historical data...
Loading historical data...
Loading historical data...
Loading historical data...

Documentation

Showing up to 5 results
|